Home   Weather   Bourges   Past weeks

Flag for France Past Weather in Bourges, Centre-Val de Loire, France — Yesterday and Last 2 Weeks

Now
67 °F

Mild.


Feels Like: 67 °F
Forecast: 58 / 81 °F
Wind: 3 mph from North

Location: Bourges

Current Time: May 25, 2018 at 8:48:16 pm

Latest Report: May 25, 2018 at 8:00 pm


Visibility: 8 mi

Pressure: 29.97 "Hg

Humidity: 87%

Dew Point: 64 °F

Location of BourgesLocation

Past Weather in Bourges — Graph

°F

Bourges Temperature Yesterday

Maximum temperature yesterday: 78 °F (at 6:00 pm)
Minimum temperature yesterday: 53 °F (at 7:00 am)
Average temperature yesterday: 66 °F

High & Low Weather Summary for the Past Weeks

 TemperatureHumidityPressure
High81 °F (May 25, 5:00 pm)96% (May 15, 12:00 am)30.17 "Hg (May 15, 12:00 am)
Low41 °F (May 11, 6:00 am)32% (May 24, 6:00 pm)29.82 "Hg (May 21, 5:00 pm)
Average59 °F72%30.03 "Hg
* Reported May 10 9:00 pm — May 25 7:00 pm, Bourges. Weather by CustomWeather, © 2018

Note: Actual official high and low records may vary slightly from our data, if they occured in-between our weather recording intervals... More about our weather records

Advertising

Bourges Weather History for the Previous 24 Hours

Scroll right to see more
 ConditionsComfort  
Time TempWeatherWind HumidityBarometerVisibility
7:00 pm
Fri, May 25
75 °FMild.3 mph55%29.94 "Hg12 mi
6:00 pm80 °FWarm.9 mph43%29.92 "Hg12 mi
5:00 pm81 °FWarm.6 mph41%29.93 "Hg12 mi
4:00 pm79 °FWarm.7 mph44%29.95 "Hg12 mi
3:00 pm80 °FWarm.7 mph43%29.96 "Hg12 mi
2:00 pm80 °FWarm.6 mph45%29.96 "Hg12 mi
1:00 pm78 °FWarm.6 mph46%29.98 "Hg12 mi
12:00 pm76 °FMild.6 mph51%29.98 "Hg12 mi
11:00 am74 °FMild.5 mph55%29.99 "Hg12 mi
9:00 am69 °FMild.5 mph68%30.00 "Hg12 mi
8:00 am64 °FMild.5 mph79%29.99 "Hg12 mi
7:00 am59 °FCool.5 mph91%30.01 "Hg12 mi
6:00 am60 °FCool.3 mph91%30.00 "Hg12 mi
5:00 am59 °FCool.3 mph89%30.00 "Hg12 mi
4:00 am60 °FCool.3 mph85%30.00 "Hg12 mi
3:00 am62 °FCool.1 mph81%30.01 "Hg12 mi
2:00 am62 °FCool.5 mph81%30.01 "Hg12 mi
1:00 am64 °FMild.1 mph73%30.02 "Hg12 mi
12:00 am66 °FMild.2 mph69%30.02 "Hg12 mi
11:00 pm
Thu, May 24
68 °FMild.2 mph63%30.02 "Hg12 mi
10:00 pm68 °FMild.3 mph59%30.01 "Hg12 mi
9:00 pm70 °FMild.3 mph55%30.00 "Hg12 mi
8:00 pm71 °FMild.7 mph52%29.98 "Hg12 mi
Weather by CustomWeather, © 2018

See weather overview